Weather in Varkala

India     8°43′51″N   76°43′03″E
temp.,
°C
wind,
m/s
gust,
m/s
humid.,
%
clouds,
%
prec.,
mm/h
press.,
hPa
HPBL,
m
12 april, mon
mon1223:30+25ene11864 4.1 101373
02:30+25ne128519 0.9 101050
05:30+24ene11877 1.3 101164
08:30+28ne117211 0.0 1013272
11:30+31sw335832 0.0 10121209
14:30+30wsw446596 0.3 1010684
17:30+29sw22708 3.3 1010535
20:30+27nw01765 0.1 1012292
13 april, tue
tue1323:30+26ne11835 0.4 101263
02:30+25ne118617 0.0 101075
05:30+25ne128891 0.0 101171
08:30+28ene117354 0.0 1013332
11:30+30sw336456 0.1 10121196
14:30+30sw336526 1.6 1009846
17:30+29sw336999 2.9 1009782
20:30+27ssw127873 1.1 1011316
14 april, wed
wed1423:30+27e018057 1.2 1012316
02:30+26ne11868 0.0 101085
05:30+25ne229179 0.2 101083
08:30+28nne017739 0.3 1013371
11:30+30wsw326557 0.4 10121121
14:30+30w436680 0.4 1009977
17:30+29wnw347464 1.4 1009600
20:30+27nw238124 0.3 1011328
15 april, thu
thu1523:30+26n238572 0.6 1012130
02:30+26n228785 0.4 1010157
05:30+25nne229026 0.6 1010113
08:30+28n23778 0.1 1012516
11:30+31w436569 0.4 10121100
14:30+30w446846 2.1 1009981
17:30+28wnw357770 3.8 1008526
20:30+27wnw2382100 3.9 1011240
16 april, fri
fri1623:30+27nnw2385100 7.9 1011218
02:30+25nnw4793100 8.2 1009360
05:30+24nne1285100 9.3 1010147
08:30+26ne1282100 0.0 1012188
11:30+29sw2168100 0.1 1012717
14:30+29sw3370100 0.4 1009527
17:30+28ssw3373100 0.4 1009534
20:30+27nw017798 0.0 1011255